Location: Balagbag Mahabang Kahoy
(14.1562°N, 120.9200°E)
Time: 18:15:48
(UTC+00:00)

Okean 3 Rocket - Pass Details

Date: 16 January 2026
Orbit: 610 x 637 km, 82.5° (Epoch: 17 February)

Event Time Altitude Azimuth Distance (km) Brightness Sun altitude
Rises 20:44:32 0° 192° (SSW) 2,860 7.0 -23.8°
Reaches altitude 10° 20:46:46 10° 196° (SSW) 1,958 6.1 -23.3°
Enters shadow 20:49:23 34° 212° (SSW) 1,003 4.4 -22.6°
